• In Moldova, Republic
  • List of Countries
  • For 7 days
  • Water Temperature
  • Satellite Maps
  • Weather Map
  • Weather Widgets
  • user-avatar
    Login

    Hourly Weather Fier

    Today, 21 January, Monday

    Time Temperature Precipitation Wind Pressure Humidity
    00:00 +8°C° 0 mm 2 mps 760 mmHg 79%
    01:00 +8°C° 0 mm 2 mps 760 mmHg 77%
    02:00 +7°C° 0 mm 2 mps 760 mmHg 76%
    03:00 +7°C° 0 mm 2 mps 760 mmHg 76%
    04:00 +7°C° 0 mm 2 mps 759 mmHg 75%
    05:00 +7°C° 0 mm 2 mps 759 mmHg 74%
    06:00 +7°C° 0 mm 2 mps 760 mmHg 73%
    07:00 +7°C° 0 mm 2 mps 760 mmHg 73%
    08:00 +8°C° 0 mm 2 mps 760 mmHg 67%
    09:00 +10°C° 0 mm 2 mps 760 mmHg 61%
    10:00 +13°C° 0 mm 2 mps 760 mmHg 56%
    11:00 +14°C° 0 mm 2 mps 760 mmHg 52%
    12:00 +15°C° 0 mm 2 mps 759 mmHg 49%
    13:00 +16°C° 0 mm 1 mps 759 mmHg 45%
    14:00 +15°C° 0 mm 1 mps 759 mmHg 50%
    15:00 +14°C° 0 mm 1 mps 759 mmHg 55%
    16:00 +14°C° 0 mm 1 mps 759 mmHg 59%
    17:00 +13°C° 0.1 mm 2 mps 759 mmHg 63%
    18:00 +12°C° 0.1 mm 2 mps 759 mmHg 66%
    19:00 +10°C° 0.1 mm 3 mps 759 mmHg 69%
    20:00 +10°C° 0.1 mm 3 mps 759 mmHg 70%
    21:00 +10°C° 0.1 mm 3 mps 759 mmHg 71%
    22:00 +8°C° 0.1 mm 4 mps 759 mmHg 72%
    23:00 +8°C° 0 mm 4 mps 759 mmHg 72%

    Tomorrow, 22 January, Tuesday

    Time Temperature Precipitation Wind Pressure Humidity
    00:00 +8°C° 0 mm 4 mps 759 mmHg 72%
    01:00 +8°C° 0 mm 4 mps 759 mmHg 72%
    02:00 +8°C° 0.1 mm 4 mps 758 mmHg 71%
    03:00 +8°C° 0.1 mm 4 mps 758 mmHg 71%
    04:00 +8°C° 0.1 mm 4 mps 757 mmHg 70%
    05:00 +8°C° 0.1 mm 5 mps 757 mmHg 70%
    06:00 +8°C° 0.1 mm 5 mps 757 mmHg 70%
    07:00 +8°C° 0.1 mm 5 mps 756 mmHg 70%
    08:00 +9°C° 0.1 mm 5 mps 756 mmHg 67%
    09:00 +10°C° 0.1 mm 5 mps 756 mmHg 64%
    10:00 +11°C° 0.1 mm 6 mps 756 mmHg 62%
    11:00 +11°C° 0.4 mm 6 mps 755 mmHg 64%
    12:00 +11°C° 0.4 mm 6 mps 754 mmHg 67%
    13:00 +11°C° 0.4 mm 6 mps 754 mmHg 70%
    14:00 +10°C° 0.5 mm 6 mps 753 mmHg 73%
    15:00 +10°C° 0.5 mm 5 mps 753 mmHg 75%
    16:00 +10°C° 0.5 mm 5 mps 752 mmHg 78%
    17:00 +10°C° 1.1 mm 5 mps 752 mmHg 80%
    18:00 +9°C° 1.1 mm 5 mps 752 mmHg 81%
    19:00 +10°C° 1.1 mm 4 mps 752 mmHg 83%
    20:00 +10°C° 0.8 mm 4 mps 752 mmHg 83%
    21:00 +8°C° 0.8 mm 4 mps 752 mmHg 83%
    22:00 +8°C° 0.8 mm 4 mps 752 mmHg 83%
    23:00 +8°C° 0.5 mm 4 mps 752 mmHg 84%

    Day after tomorrow, 23 January, Wednesday

    Time Temperature Precipitation Wind Pressure Humidity
    00:00 +8°C° 0.5 mm 4 mps 752 mmHg 84%
    01:00 +7°C° 0.5 mm 4 mps 752 mmHg 85%
    02:00 +7°C° 0.7 mm 4 mps 752 mmHg 85%
    03:00 +7°C° 0.7 mm 4 mps 752 mmHg 85%
    04:00 +7°C° 0.7 mm 4 mps 752 mmHg 85%
    05:00 +6°C° 0.3 mm 4 mps 752 mmHg 84%
    06:00 +6°C° 0.3 mm 4 mps 752 mmHg 83%
    07:00 +6°C° 0.3 mm 4 mps 752 mmHg 82%
    08:00 +8°C° 0.3 mm 5 mps 752 mmHg 77%
    09:00 +9°C° 0.3 mm 5 mps 752 mmHg 71%
    10:00 +11°C° 0.3 mm 6 mps 752 mmHg 65%
    11:00 +12°C° 0.1 mm 5 mps 751 mmHg 62%
    12:00 +13°C° 0.1 mm 5 mps 751 mmHg 58%
    13:00 +13°C° 0.1 mm 5 mps 750 mmHg 55%
    14:00 +13°C° 0.1 mm 4 mps 750 mmHg 58%
    15:00 +12°C° 0.1 mm 3 mps 750 mmHg 61%
    16:00 +13°C° 0.1 mm 2 mps 749 mmHg 64%
    17:00 +12°C° 0 mm 1 mps 749 mmHg 65%
    18:00 +11°C° 0 mm 1 mps 749 mmHg 67%
    19:00 +10°C° 0 mm 1 mps 749 mmHg 69%
    20:00 +10°C° 0 mm 1 mps 749 mmHg 70%
    21:00 +10°C° 0 mm 1 mps 748 mmHg 71%
    22:00 +8°C° 0 mm 0 mps 748 mmHg 73%
    23:00 +9°C° 0.1 mm 1 mps 747 mmHg 74%

    24 January, Thursday

    Time Temperature Precipitation Wind Pressure Humidity
    00:00 +9°C° 0.1 mm 1 mps 747 mmHg 75%
    01:00 +9°C° 0.1 mm 1 mps 746 mmHg 77%
    02:00 +9°C° 0.4 mm 1 mps 746 mmHg 79%
    03:00 +9°C° 0.4 mm 1 mps 745 mmHg 82%
    04:00 +9°C° 0.4 mm 1 mps 744 mmHg 84%
    05:00 +9°C° 0.5 mm 1 mps 744 mmHg 85%
    06:00 +8°C° 0.5 mm 1 mps 744 mmHg 85%
    07:00 +8°C° 0.5 mm 1 mps 744 mmHg 85%
    08:00 +9°C° 1.4 mm 1 mps 744 mmHg 85%
    09:00 +9°C° 1.4 mm 1 mps 744 mmHg 85%
    10:00 +9°C° 1.4 mm 1 mps 744 mmHg 85%
    11:00 +9°C° 0.9 mm 1 mps 744 mmHg 85%
    12:00 +9°C° 0.9 mm 1 mps 744 mmHg 85%
    13:00 +10°C° 0.9 mm 1 mps 744 mmHg 85%
    14:00 +10°C° 0.1 mm 1 mps 744 mmHg 85%
    15:00 +10°C° 0.1 mm 1 mps 744 mmHg 86%
    16:00 +10°C° 0.1 mm 1 mps 744 mmHg 86%
    17:00 +9°C° 0 mm 2 mps 744 mmHg 86%
    18:00 +9°C° 0 mm 2 mps 745 mmHg 86%
    19:00 +8°C° 0 mm 2 mps 745 mmHg 87%
    20:00 +8°C° 0 mm 2 mps 745 mmHg 85%
    21:00 +8°C° 0 mm 2 mps 745 mmHg 84%
    22:00 +9°C° 0 mm 1 mps 745 mmHg 82%
    23:00 +8°C° 0 mm 2 mps 745 mmHg 81%

    25 January, Friday

    Time Temperature Precipitation Wind Pressure Humidity
    00:00 +7°C° 0 mm 2 mps 745 mmHg 80%
    01:00 +7°C° 0 mm 3 mps 745 mmHg 79%
    02:00 +7°C° 1.3 mm 3 mps 746 mmHg 82%
    03:00 +7°C° 1.3 mm 3 mps 746 mmHg 86%
    04:00 +8°C° 1.3 mm 3 mps 746 mmHg 89%
    05:00 +7°C° 0.2 mm 3 mps 747 mmHg 87%
    06:00 +7°C° 0.2 mm 3 mps 747 mmHg 85%
    07:00 +7°C° 0.2 mm 3 mps 747 mmHg 84%
    08:00 +8°C° 0 mm 3 mps 748 mmHg 81%
    09:00 +9°C° 0 mm 2 mps 748 mmHg 78%
    10:00 +9°C° 0 mm 2 mps 748 mmHg 75%
    11:00 +10°C° 0 mm 2 mps 748 mmHg 71%
    12:00 +12°C° 0 mm 2 mps 748 mmHg 67%
    13:00 +13°C° 0 mm 2 mps 748 mmHg 62%
    14:00 +12°C° 0 mm 3 mps 748 mmHg 64%
    15:00 +11°C° 0 mm 3 mps 748 mmHg 66%
    16:00 +11°C° 0 mm 3 mps 748 mmHg 68%
    17:00 +10°C° 0 mm 3 mps 748 mmHg 71%
    18:00 +9°C° 0 mm 3 mps 748 mmHg 74%
    19:00 +8°C° 0 mm 2 mps 749 mmHg 77%
    20:00 +8°C° 0 mm 2 mps 749 mmHg 77%
    21:00 +8°C° 0 mm 2 mps 749 mmHg 77%
    22:00 +7°C° 0 mm 2 mps 749 mmHg 77%
    23:00 +7°C° 0 mm 2 mps 750 mmHg 77%

    26 January, Saturday

    Time Temperature Precipitation Wind Pressure Humidity
    00:00 +5°C° 0 mm 3 mps 750 mmHg 76%
    01:00 +5°C° 0 mm 3 mps 750 mmHg 76%
    02:00 +5°C° 0 mm 3 mps 750 mmHg 75%
    03:00 +4°C° 0 mm 3 mps 750 mmHg 75%
    04:00 +4°C° 0 mm 3 mps 750 mmHg 75%
    05:00 +4°C° 0 mm 3 mps 750 mmHg 74%
    06:00 +4°C° 0 mm 3 mps 750 mmHg 74%
    07:00 +3°C° 0 mm 3 mps 751 mmHg 73%
    08:00 +5°C° 0 mm 3 mps 751 mmHg 68%
    09:00 +7°C° 0 mm 3 mps 751 mmHg 63%
    10:00 +7°C° 0 mm 4 mps 752 mmHg 57%
    11:00 +9°C° 0 mm 3 mps 752 mmHg 54%
    12:00 +10°C° 0 mm 3 mps 752 mmHg 50%
    13:00 +11°C° 0 mm 3 mps 752 mmHg 47%
    14:00 +10°C° 0 mm 4 mps 752 mmHg 51%
    15:00 +10°C° 0 mm 4 mps 752 mmHg 55%
    16:00 +10°C° 0 mm 4 mps 752 mmHg 58%
    17:00 +8°C° 0 mm 4 mps 753 mmHg 61%
    18:00 +8°C° 0 mm 3 mps 753 mmHg 64%
    19:00 +7°C° 0 mm 3 mps 753 mmHg 67%
    20:00 +6°C° 0 mm 2 mps 754 mmHg 68%
    21:00 +6°C° 0 mm 2 mps 754 mmHg 69%
    22:00 +5°C° 0 mm 2 mps 754 mmHg 69%
    23:00 +5°C° 0 mm 2 mps 754 mmHg 70%
    Show more